| time (UTC) | temp F | wind direction | speed MPH | gust MPH | rain 1hr in | rain 24hr in | rain mn in | humidity % | barometer mb |
| 20260504174013 | 57 | 352 | 7.0 | 12.0 | 0.00 | 0.45 | 0.44 | 87 | 1015.0 |
| 20260504173518 | 57 | 343 | 7.0 | 11.0 | 0.00 | 0.45 | 0.44 | 88 | 1014.9 |
| 20260504173032 | 57 | 315 | 7.0 | 11.0 | 0.00 | 0.45 | 0.44 | 88 | 1015.0 |
| 20260504172517 | 57 | 330 | 7.0 | 11.0 | 0.00 | 0.45 | 0.44 | 89 | 1014.9 |
| 20260504172016 | 56 | 311 | 7.0 | 11.0 | 0.00 | 0.45 | 0.44 | 89 | 1015.0 |
| 20260504171532 | 56 | 310 | 7.0 | 10.0 | 0.00 | 0.45 | 0.44 | 89 | 1015.1 |
| 20260504171018 | 56 | 337 | 6.0 | 10.0 | 0.00 | 0.45 | 0.44 | 89 | 1015.1 |
| 20260504170515 | 56 | 309 | 7.0 | 10.0 | 0.00 | 0.45 | 0.44 | 88 | 1015.1 |
| 20260504151017 | 54 | 311 | 5.0 | 8.0 | 0.00 | 0.45 | 0.44 | 93 | 1015.2 |
| 20260504150516 | 54 | 318 | 4.0 | 9.0 | 0.00 | 0.45 | 0.44 | 93 | 1015.3 |
| 20260504141015 | 55 | 323 | 5.0 | 8.0 | 0.00 | 0.44 | 0.44 | 91 | 1015.5 |
| 20260504140520 | 55 | 316 | 5.0 | 8.0 | 0.00 | 0.44 | 0.44 | 90 | 1015.5 |
| 20260504130519 | 56 | 0 | 0.0 | 1.0 | 0.04 | 0.44 | 0.44 | 92 | 1015.7 |
| 20260504110519 | 54 | 317 | 1.0 | 4.0 | 0.00 | 0.37 | 0.36 | 93 | 1015.5 |
| 20260504100517 | 53 | 17 | 2.0 | 4.0 | 0.07 | 0.37 | 0.36 | 94 | 1015.4 |
| 20260504081536 | 53 | 333 | 0.0 | 5.0 | 0.00 | 0.28 | 0.25 | 94 | 1014.5 |
| 20260504081014 | 53 | 340 | 1.0 | 5.0 | 0.00 | 0.28 | 0.25 | 94 | 1014.6 |
| 20260504080514 | 53 | 338 | 0.0 | 4.0 | 0.00 | 0.28 | 0.25 | 94 | 1014.5 |
| 20260504050515 | 51 | 0 | 0.0 | 3.0 | 0.18 | 0.20 | 0.18 | 93 | 1013.1 |
| 20260504045514 | 52 | 336 | 1.0 | 2.0 | 0.15 | 0.18 | 0.15 | 93 | 1013.0 |
| 20260504045015 | 52 | 332 | 0.0 | 0.0 | 0.07 | 0.10 | 0.07 | 93 | 1012.9 |
| 20260504044533 | 52 | 332 | 0.0 | 0.0 | 0.06 | 0.08 | 0.06 | 93 | 1013.0 |
| 20260504044019 | 52 | 0 | 0.0 | 1.0 | 0.02 | 0.04 | 0.02 | 93 | 1013.0 |
| 20260504043515 | 52 | 0 | 0.0 | 1.0 | 0.02 | 0.04 | 0.02 | 93 | 1013.0 |
| 20260504043035 | 52 | 0 | 0.0 | 0.0 | 0.00 | 0.03 | 0.00 | 93 | 1013.0 |
| 20260504042515 | 52 | 0 | 0.0 | 0.0 | 0.00 | 0.02 | 0.00 | 93 | 1013.0 |
| 20260504042015 | 52 | 0 | 0.0 | 0.0 | 0.00 | 0.02 | 0.00 | 93 | 1012.9 |
| 20260504041534 | 52 | 0 | 0.0 | 0.0 | 0.00 | 0.02 | 0.00 | 93 | 1013.0 |
| 20260504041017 | 52 | 0 | 0.0 | 0.0 | 0.00 | 0.02 | 0.00 | 93 | 1013.0 |
| 20260504040515 | 52 | 0 | 0.0 | 0.0 | 0.00 | 0.02 | 0.00 | 93 | 1012.9 |
| 20260504040032 | 52 | 0 | 0.0 | 1.0 | 0.00 | 0.02 | 0.00 | 93 | 1012.9 |
| 20260504035517 | 52 | 0 | 0.0 | 1.0 | 0.00 | 0.02 | 0.00 | 93 | 1012.8 |
| 20260504035017 | 52 | 0 | 0.0 | 1.0 | 0.00 | 0.02 | 0.00 | 93 | 1012.8 |
| 20260504034535 | 52 | 0 | 0.0 | 1.0 | 0.00 | 0.02 | 0.00 | 93 | 1012.8 |
| 20260504034021 | 52 | 0 | 0.0 | 1.0 | 0.00 | 0.02 | 0.00 | 93 | 1012.7 |
| 20260504033516 | 51 | 0 | 0.0 | 2.0 | 0.00 | 0.02 | 0.00 | 93 | 1012.7 |
| 20260504033034 | 51 | 0 | 0.0 | 2.0 | 0.00 | 0.02 | 0.00 | 93 | 1012.7 |
| 20260504032515 | 51 | 337 | 0.0 | 2.0 | 0.00 | 0.02 | 0.00 | 93 | 1012.7 |
| 20260504032015 | 51 | 338 | 0.0 | 2.0 | 0.00 | 0.02 | 0.00 | 93 | 1012.7 |
| 20260504031532 | 51 | 335 | 0.0 | 1.0 | 0.00 | 0.02 | 0.00 | 93 | 1012.7 |
| 20260504031015 | 51 | 335 | 0.0 | 1.0 | 0.00 | 0.02 | 0.00 | 93 | 1012.7 |
| 20260504030515 | 51 | 335 | 0.0 | 1.0 | 0.00 | 0.02 | 0.00 | 93 | 1012.7 |
| 20260504030032 | 51 | 0 | 0.0 | 0.0 | 0.00 | 0.02 | 0.00 | 93 | 1012.7 |
| 20260504025518 | 51 | 0 | 0.0 | 0.0 | 0.00 | 0.02 | 0.00 | 93 | 1012.8 |
| 20260504025015 | 51 | 0 | 0.0 | 0.0 | 0.00 | 0.02 | 0.00 | 93 | 1012.8 |
| 20260504024532 | 51 | 0 | 0.0 | 0.0 | 0.00 | 0.02 | 0.00 | 93 | 1012.8 |
| 20260504024015 | 51 | 0 | 0.0 | 0.0 | 0.00 | 0.02 | 0.00 | 93 | 1012.7 |
| 20260504023516 | 51 | 0 | 0.0 | 0.0 | 0.00 | 0.02 | 0.00 | 93 | 1012.7 |
| 20260504023032 | 51 | 0 | 0.0 | 0.0 | 0.00 | 0.02 | 0.00 | 93 | 1012.7 |
| 20260504022518 | 51 | 0 | 0.0 | 0.0 | 0.00 | 0.02 | 0.00 | 93 | 1012.7 |
| 20260504022016 | 51 | 0 | 0.0 | 0.0 | 0.00 | 0.02 | 0.00 | 92 | 1012.7 |
| 20260504021534 | 51 | 0 | 0.0 | 0.0 | 0.00 | 0.02 | 0.00 | 92 | 1012.7 |
| 20260504021015 | 52 | 0 | 0.0 | 2.0 | 0.00 | 0.02 | 0.00 | 92 | 1012.7 |
| 20260504020515 | 51 | 0 | 0.0 | 2.0 | 0.00 | 0.02 | 0.00 | 92 | 1012.7 |
| 20260504020031 | 52 | 338 | 0.0 | 2.0 | 0.00 | 0.02 | 0.00 | 92 | 1012.8 |
| 20260504015515 | 52 | 340 | 0.0 | 2.0 | 0.00 | 0.02 | 0.00 | 92 | 1012.7 |
| 20260504015026 | 52 | 340 | 1.0 | 2.0 | 0.00 | 0.02 | 0.00 | 92 | 1012.7 |
| 20260504014545 | 52 | 332 | 0.0 | 1.0 | 0.00 | 0.02 | 0.00 | 92 | 1012.6 |
| 20260504014015 | 52 | 324 | 0.0 | 1.0 | 0.00 | 0.02 | 0.00 | 92 | 1012.7 |
| 20260504013516 | 52 | 0 | 0.0 | 1.0 | 0.00 | 0.02 | 0.00 | 92 | 1012.7 |
| 20260504013039 | 52 | 0 | 0.0 | 1.0 | 0.00 | 0.02 | 0.00 | 92 | 1012.7 |
| 20260504012520 | 52 | 321 | 0.0 | 1.0 | 0.00 | 0.02 | 0.00 | 92 | 1012.7 |
| 20260504012016 | 52 | 0 | 0.0 | 3.0 | 0.00 | 0.02 | 0.00 | 92 | 1012.6 |
| 20260504011531 | 52 | 0 | 0.0 | 3.0 | 0.00 | 0.02 | 0.00 | 92 | 1012.7 |
| 20260504011015 | 52 | 0 | 0.0 | 3.0 | 0.00 | 0.02 | 0.00 | 92 | 1012.5 |
| 20260504010515 | 52 | 0 | 0.0 | 3.0 | 0.00 | 0.02 | 0.00 | 92 | 1012.6 |
| 20260504010034 | 52 | 0 | 0.0 | 1.0 | 0.00 | 0.02 | 0.00 | 92 | 1012.7 |
| 20260504005516 | 52 | 0 | 0.0 | 1.0 | 0.00 | 0.02 | 0.00 | 92 | 1012.6 |
| 20260504005015 | 52 | 328 | 0.0 | 2.0 | 0.00 | 0.02 | 0.00 | 92 | 1012.6 |
| 20260504004532 | 52 | 0 | 0.0 | 2.0 | 0.00 | 0.02 | 0.00 | 92 | 1012.6 |
| 20260504004016 | 52 | 0 | 0.0 | 1.0 | 0.00 | 0.02 | 0.00 | 91 | 1012.6 |
| 20260504003515 | 52 | 325 | 0.0 | 1.0 | 0.00 | 0.02 | 0.00 | 92 | 1012.5 |
| 20260504003032 | 52 | 0 | 0.0 | 2.0 | 0.00 | 0.02 | 0.00 | 92 | 1012.5 |
| 20260504002515 | 51 | 335 | 0.0 | 3.0 | 0.00 | 0.02 | 0.00 | 91 | 1012.5 |
| 20260504002018 | 51 | 0 | 0.0 | 4.0 | 0.00 | 0.02 | 0.00 | 91 | 1012.5 |
| 20260504001545 | 52 | 337 | 0.0 | 4.0 | 0.00 | 0.02 | 0.00 | 91 | 1012.5 |
| 20260504001016 | 51 | 340 | 1.0 | 5.0 | 0.00 | 0.02 | 0.00 | 91 | 1012.6 |
| 20260504000514 | 51 | 340 | 2.0 | 5.0 | 0.00 | 0.02 | 0.00 | 91 | 1012.5 |
| 20260504000040 | 51 | 349 | 1.0 | 3.0 | 0.00 | 0.02 | 0.00 | 91 | 1012.5 |
| 20260503235514 | 51 | 336 | 1.0 | 4.0 | 0.00 | 0.02 | 0.00 | 91 | 1012.5 |
| 20260503235016 | 52 | 338 | 1.0 | 4.0 | 0.00 | 0.02 | 0.00 | 91 | 1012.4 |
| 20260503234530 | 52 | 343 | 1.0 | 5.0 | 0.00 | 0.02 | 0.00 | 91 | 1012.4 |
| 20260503234018 | 52 | 340 | 2.0 | 5.0 | 0.00 | 0.02 | 0.00 | 91 | 1012.4 |
| 20260503233514 | 52 | 348 | 2.0 | 5.0 | 0.00 | 0.02 | 0.00 | 91 | 1012.4 |
| 20260503233031 | 52 | 341 | 2.0 | 5.0 | 0.00 | 0.02 | 0.00 | 91 | 1012.3 |
| 20260503232515 | 52 | 354 | 2.0 | 5.0 | 0.00 | 0.02 | 0.00 | 91 | 1012.4 |
| 20260503232015 | 52 | 331 | 2.0 | 4.0 | 0.00 | 0.02 | 0.00 | 91 | 1012.4 |
| 20260503231530 | 52 | 339 | 1.0 | 4.0 | 0.00 | 0.02 | 0.00 | 91 | 1012.4 |
| 20260503231017 | 52 | 333 | 2.0 | 4.0 | 0.00 | 0.02 | 0.00 | 91 | 1012.3 |
| 20260503230516 | 52 | 355 | 1.0 | 4.0 | 0.00 | 0.02 | 0.00 | 91 | 1012.3 |
| 20260503230032 | 52 | 340 | 2.0 | 4.0 | 0.00 | 0.02 | 0.00 | 90 | 1012.3 |
| 20260503225520 | 52 | 342 | 2.0 | 5.0 | 0.00 | 0.03 | 0.02 | 90 | 1012.3 |
| 20260503225016 | 52 | 357 | 2.0 | 5.0 | 0.00 | 0.03 | 0.02 | 90 | 1012.2 |
| 20260503224536 | 52 | 11 | 2.0 | 5.0 | 0.00 | 0.03 | 0.02 | 90 | 1012.1 |
| 20260503224016 | 52 | 354 | 3.0 | 6.0 | 0.00 | 0.03 | 0.02 | 90 | 1012.1 |
| 20260503223516 | 52 | 347 | 3.0 | 6.0 | 0.00 | 0.03 | 0.02 | 90 | 1012.2 |
| 20260503223031 | 52 | 13 | 4.0 | 5.0 | 0.00 | 0.03 | 0.02 | 90 | 1012.1 |
| 20260503222515 | 52 | 1 | 3.0 | 5.0 | 0.00 | 0.03 | 0.02 | 90 | 1012.1 |
| 20260503222015 | 52 | 1 | 3.0 | 4.0 | 0.00 | 0.03 | 0.02 | 90 | 1012.1 |
| 20260503221535 | 52 | 352 | 3.0 | 4.0 | 0.00 | 0.03 | 0.02 | 90 | 1012.1 |
| 20260503221015 | 52 | 357 | 2.0 | 4.0 | 0.00 | 0.03 | 0.02 | 90 | 1012.1 |
| 20260503220515 | 52 | 355 | 2.0 | 4.0 | 0.00 | 0.03 | 0.02 | 90 | 1012.1 |
| 20260503220035 | 52 | 343 | 2.0 | 4.0 | 0.00 | 0.03 | 0.02 | 90 | 1012.1 |
| 20260503215517 | 52 | 344 | 2.0 | 3.0 | 0.00 | 0.03 | 0.02 | 90 | 1012.0 |
| 20260503215018 | 52 | 347 | 2.0 | 4.0 | 0.00 | 0.03 | 0.02 | 90 | 1012.1 |
| 20260503214534 | 52 | 342 | 2.0 | 4.0 | 0.00 | 0.03 | 0.02 | 90 | 1012.1 |
| 20260503214015 | 52 | 346 | 2.0 | 3.0 | 0.00 | 0.03 | 0.02 | 90 | 1012.0 |
| 20260503213520 | 51 | 347 | 2.0 | 3.0 | 0.00 | 0.03 | 0.02 | 90 | 1012.0 |
| 20260503213034 | 51 | 344 | 2.0 | 4.0 | 0.00 | 0.03 | 0.02 | 90 | 1011.9 |
| 20260503212517 | 51 | 347 | 3.0 | 5.0 | 0.00 | 0.03 | 0.02 | 90 | 1011.9 |
| 20260503212016 | 52 | 345 | 2.0 | 5.0 | 0.00 | 0.03 | 0.02 | 90 | 1011.8 |
| 20260503211534 | 52 | 351 | 3.0 | 5.0 | 0.00 | 0.03 | 0.02 | 90 | 1011.7 |
| 20260503211015 | 52 | 347 | 2.0 | 4.0 | 0.00 | 0.03 | 0.02 | 90 | 1011.8 |
| 20260503210515 | 51 | 360 | 3.0 | 4.0 | 0.00 | 0.03 | 0.02 | 90 | 1011.7 |
| 20260503210044 | 52 | 337 | 1.0 | 3.0 | 0.00 | 0.03 | 0.02 | 89 | 1011.7 |
| 20260503205519 | 52 | 333 | 0.0 | 1.0 | 0.00 | 0.03 | 0.02 | 89 | 1011.7 |
| 20260503205016 | 52 | 0 | 0.0 | 2.0 | 0.00 | 0.03 | 0.02 | 90 | 1011.6 |
| 20260503204541 | 52 | 335 | 0.0 | 3.0 | 0.00 | 0.03 | 0.02 | 90 | 1011.6 |
| 20260503204018 | 52 | 338 | 2.0 | 5.0 | 0.00 | 0.03 | 0.02 | 90 | 1011.6 |
| 20260503203517 | 52 | 345 | 3.0 | 5.0 | 0.00 | 0.03 | 0.02 | 90 | 1011.5 |
| 20260503203036 | 52 | 354 | 3.0 | 5.0 | 0.00 | 0.03 | 0.02 | 90 | 1011.4 |
| 20260503202515 | 52 | 344 | 3.0 | 5.0 | 0.00 | 0.03 | 0.02 | 90 | 1011.3 |
| 20260503202016 | 53 | 333 | 2.0 | 4.0 | 0.00 | 0.03 | 0.02 | 90 | 1011.2 |
| 20260503201537 | 53 | 354 | 2.0 | 4.0 | 0.00 | 0.03 | 0.02 | 90 | 1011.2 |
| 20260503201015 | 53 | 342 | 2.0 | 3.0 | 0.00 | 0.03 | 0.02 | 90 | 1011.2 |
| 20260503200515 | 53 | 337 | 1.0 | 3.0 | 0.00 | 0.03 | 0.02 | 90 | 1011.2 |
| 20260503200035 | 53 | 342 | 1.0 | 4.0 | 0.00 | 0.03 | 0.02 | 90 | 1011.1 |
| 20260503195517 | 53 | 335 | 1.0 | 4.0 | 0.00 | 0.03 | 0.02 | 90 | 1011.0 |
| 20260503195017 | 53 | 347 | 2.0 | 5.0 | 0.00 | 0.03 | 0.02 | 90 | 1010.8 |
| 20260503194535 | 53 | 345 | 2.0 | 5.0 | 0.00 | 0.03 | 0.02 | 90 | 1010.8 |
| 20260503194017 | 53 | 333 | 2.0 | 5.0 | 0.00 | 0.03 | 0.02 | 90 | 1010.7 |
| 20260503193516 | 53 | 333 | 2.0 | 5.0 | 0.00 | 0.03 | 0.02 | 90 | 1010.7 |
| 20260503193032 | 53 | 4 | 2.0 | 4.0 | 0.00 | 0.03 | 0.02 | 90 | 1010.7 |
| 20260503192515 | 53 | 350 | 2.0 | 4.0 | 0.00 | 0.03 | 0.02 | 90 | 1010.6 |
| 20260503192018 | 53 | 335 | 2.0 | 4.0 | 0.00 | 0.03 | 0.02 | 90 | 1010.7 |
| 20260503191532 | 53 | 338 | 1.0 | 6.0 | 0.00 | 0.03 | 0.02 | 90 | 1010.6 |
| 20260503191019 | 53 | 353 | 4.0 | 6.0 | 0.00 | 0.03 | 0.02 | 90 | 1010.7 |
| 20260503190517 | 53 | 341 | 3.0 | 5.0 | 0.00 | 0.03 | 0.02 | 90 | 1010.7 |
| 20260503190043 | 53 | 354 | 2.0 | 5.0 | 0.00 | 0.03 | 0.02 | 90 | 1010.8 |
| 20260503185517 | 53 | 343 | 2.0 | 6.0 | 0.00 | 0.06 | 0.02 | 90 | 1010.8 |
| 20260503185018 | 54 | 354 | 3.0 | 7.0 | 0.00 | 0.06 | 0.02 | 90 | 1010.8 |
| 20260503184531 | 54 | 359 | 4.0 | 8.0 | 0.00 | 0.06 | 0.02 | 90 | 1010.8 |
| 20260503184015 | 54 | 342 | 4.0 | 8.0 | 0.00 | 0.06 | 0.02 | 90 | 1010.7 |
| 20260503183515 | 54 | 360 | 4.0 | 8.0 | 0.00 | 0.06 | 0.02 | 90 | 1010.7 |
| 20260503183035 | 54 | 341 | 3.0 | 8.0 | 0.00 | 0.06 | 0.02 | 90 | 1010.7 |
| 20260503182515 | 54 | 356 | 3.0 | 8.0 | 0.00 | 0.06 | 0.02 | 90 | 1010.7 |
| 20260503182016 | 54 | 4 | 4.0 | 8.0 | 0.00 | 0.06 | 0.02 | 90 | 1010.7 |
| 20260503181536 | 55 | 16 | 3.0 | 5.0 | 0.00 | 0.06 | 0.02 | 90 | 1010.6 |
| 20260503181017 | 55 | 327 | 2.0 | 5.0 | 0.00 | 0.06 | 0.02 | 90 | 1010.6 |
| 20260503180516 | 54 | 332 | 2.0 | 4.0 | 0.00 | 0.06 | 0.02 | 89 | 1010.6 |
| 20260503180032 | 54 | 330 | 2.0 | 5.0 | 0.00 | 0.06 | 0.02 | 89 | 1010.6 |
| 20260503175519 | 54 | 332 | 2.0 | 5.0 | 0.00 | 0.15 | 0.02 | 89 | 1010.6 |
| 20260503175015 | 54 | 335 | 3.0 | 5.0 | 0.00 | 0.15 | 0.02 | 88 | 1010.6 |
| 20260503174535 | 55 | 328 | 2.0 | 5.0 | 0.00 | 0.15 | 0.02 | 88 | 1010.5 |